Location: Cruquius
(52.3348°N, 4.6319°E)
Time: 23:16:17
(UTC+00:00)

SPOT 5 - Pass Details

Date: 12 May 2021
Orbit: 622 x 815 km, 98.2° (Epoch: 24 June)

Event Time Altitude Azimuth Distance (km) Brightness Sun altitude
Exits shadow 20:48:20 13° 150° (SSE) 2,112 4.6 -10.3°
Maximum altitude 20:52:54 66° 70° (ENE) 869 3.2 -10.8°
Drops below altitude 10° 20:58:12 10° 350° (N) 2,408 6.6 -11.3°
Sets 21:00:36 0° 347° (NNW) 3,352 7.6 -11.5°
